CEB897 RPLL-RPVE

Flight info

Callsign CEB897
Flight time 0h 35m
Altitude 27000
Route VERDE2R VERDE W24 TAPER TAPER7A
Aircraft A20N/M-SDE2E3FGHIRWXY/LB1

Departure

Time 2026-04-26 14:19
Airport Ninoy Aquino International Airport (RPLL)

Arrival

Time 2026-04-26 14:55
Airport Godofredo P. Ramos Airport (RPVE)
Time Latitude Longitude Altitude Speed Heading
2026-04-26 13:45 14.51953 121.01235 49 ft 0 kts 46°
2026-04-26 13:59 14.51953 121.01234 49 ft 0 kts 46°
2026-04-26 14:00 14.51931 121.01211 49 ft 2 kts 46°
2026-04-26 14:00 14.51922 121.01202 49 ft 2 kts 45°
2026-04-26 14:00 14.51915 121.01195 49 ft 2 kts 46°
2026-04-26 14:01 14.51903 121.01181 48 ft 2 kts 45°
2026-04-26 14:01 14.51899 121.01177 48 ft 1 kts 46°
2026-04-26 14:01 14.51888 121.01169 48 ft 2 kts 15°
2026-04-26 14:01 14.51873 121.01168 48 ft 2 kts 349°
2026-04-26 14:02 14.51859 121.01173 48 ft 1 kts 320°
2026-04-26 14:02 14.51855 121.01178 48 ft 1 kts 310°
2026-04-26 14:02 14.51852 121.01180 48 ft 0 kts 315°
2026-04-26 14:10 14.51853 121.01180 48 ft 0 kts 315°
2026-04-26 14:10 14.51885 121.01148 47 ft 15 kts 315°
2026-04-26 14:10 14.51985 121.01045 43 ft 23 kts 315°
2026-04-26 14:11 14.52242 121.00779 37 ft 30 kts 315°
2026-04-26 14:11 14.52391 121.00623 35 ft 30 kts 314°
2026-04-26 14:11 14.52490 121.00522 33 ft 12 kts 314°
2026-04-26 14:12 14.52473 121.00462 32 ft 8 kts 224°
2026-04-26 14:12 14.52452 121.00442 32 ft 0 kts 224°
2026-04-26 14:15 14.52451 121.00440 32 ft 0 kts 224°
2026-04-26 14:15 14.52434 121.00423 32 ft 6 kts 224°
2026-04-26 14:15 14.52389 121.00387 32 ft 7 kts 186°
2026-04-26 14:16 14.52365 121.00403 32 ft 0 kts 130°
2026-04-26 14:16 14.52359 121.00410 32 ft 0 kts 136°
2026-04-26 14:18 14.52342 121.00427 32 ft 24 kts 136°
2026-04-26 14:19 14.52062 121.00717 39 ft 94 kts 136°
2026-04-26 14:19 14.51494 121.01301 54 ft 149 kts 134°
2026-04-26 14:19 14.50751 121.02065 556 ft 152 kts 134°
2026-04-26 14:19 14.50013 121.02788 1142 ft 153 kts 135°
2026-04-26 14:20 14.49263 121.03530 1742 ft 155 kts 133°
2026-04-26 14:20 14.48456 121.04284 2213 ft 163 kts 142°
2026-04-26 14:20 14.47297 121.04604 2555 ft 186 kts 177°
2026-04-26 14:20 14.46009 121.04518 2956 ft 202 kts 182°
2026-04-26 14:21 14.44557 121.04381 3377 ft 219 kts 182°
2026-04-26 14:21 14.43013 121.04274 3716 ft 243 kts 180°
2026-04-26 14:21 14.41304 121.04196 4221 ft 260 kts 179°
2026-04-26 14:21 14.39443 121.04141 4786 ft 276 kts 179°
2026-04-26 14:22 14.37537 121.04099 5627 ft 281 kts 179°
2026-04-26 14:22 14.35609 121.04067 6544 ft 284 kts 179°
2026-04-26 14:22 14.33681 121.04038 7409 ft 287 kts 178°
2026-04-26 14:22 14.31673 121.04012 8255 ft 290 kts 179°
2026-04-26 14:23 14.29661 121.03987 9121 ft 293 kts 178°
2026-04-26 14:23 14.27617 121.03966 9950 ft 297 kts 179°
2026-04-26 14:23 14.25532 121.03946 10670 ft 305 kts 179°
2026-04-26 14:23 14.23341 121.03924 11112 ft 322 kts 179°
2026-04-26 14:24 14.21021 121.03899 11488 ft 341 kts 179°
2026-04-26 14:24 14.18614 121.03874 11965 ft 353 kts 179°
2026-04-26 14:24 14.16104 121.03847 12674 ft 358 kts 180°
2026-04-26 14:24 14.13604 121.03821 13397 ft 361 kts 180°
2026-04-26 14:25 14.11090 121.03794 14083 ft 365 kts 180°
2026-04-26 14:25 14.08536 121.03767 14737 ft 368 kts 180°
2026-04-26 14:25 14.05948 121.03741 15374 ft 372 kts 181°
2026-04-26 14:25 14.03346 121.03713 15995 ft 375 kts 181°
2026-04-26 14:26 14.00715 121.03686 16594 ft 379 kts 181°
2026-04-26 14:26 13.98041 121.03657 17169 ft 382 kts 181°
2026-04-26 14:26 13.95387 121.03629 17720 ft 386 kts 181°
2026-04-26 14:26 13.92654 121.03599 18261 ft 389 kts 181°
2026-04-26 14:27 13.89952 121.03571 18765 ft 393 kts 181°
2026-04-26 14:27 13.87161 121.03543 19266 ft 397 kts 182°
2026-04-26 14:27 13.84384 121.03516 19699 ft 400 kts 182°
2026-04-26 14:27 13.81594 121.03487 19908 ft 402 kts 182°
2026-04-26 14:28 13.78795 121.03458 20236 ft 407 kts 182°
2026-04-26 14:28 13.75916 121.03429 20789 ft 408 kts 182°
2026-04-26 14:28 13.73074 121.03400 21285 ft 410 kts 182°
2026-04-26 14:28 13.70181 121.03360 21767 ft 413 kts 182°
2026-04-26 14:29 13.67289 121.03334 22201 ft 416 kts 181°
2026-04-26 14:29 13.64358 121.03317 22649 ft 420 kts 181°
2026-04-26 14:29 13.61430 121.03297 23153 ft 422 kts 181°
2026-04-26 14:29 13.58455 121.03271 23678 ft 424 kts 181°
2026-04-26 14:30 13.55522 121.03243 24186 ft 426 kts 182°
2026-04-26 14:30 13.52516 121.03367 24693 ft 429 kts 173°
2026-04-26 14:30 13.49581 121.04131 25209 ft 433 kts 160°
2026-04-26 14:30 13.46866 121.05536 25716 ft 436 kts 148°
2026-04-26 14:31 13.44352 121.07278 26200 ft 439 kts 146°
2026-04-26 14:31 13.41851 121.09089 26648 ft 441 kts 146°
2026-04-26 14:31 13.39305 121.10922 26936 ft 442 kts 146°
2026-04-26 14:31 13.36774 121.12721 26975 ft 441 kts 147°
2026-04-26 14:32 13.34313 121.14452 26985 ft 441 kts 147°
2026-04-26 14:32 13.31788 121.16218 26989 ft 441 kts 147°
2026-04-26 14:32 13.29253 121.17992 26990 ft 441 kts 147°
2026-04-26 14:32 13.26714 121.19769 26984 ft 441 kts 147°
2026-04-26 14:33 13.24160 121.21555 26975 ft 441 kts 147°
2026-04-26 14:33 13.21630 121.23328 26962 ft 441 kts 147°
2026-04-26 14:33 13.19093 121.25107 26953 ft 441 kts 147°
2026-04-26 14:33 13.16516 121.26912 26943 ft 441 kts 147°
2026-04-26 14:34 13.13988 121.28682 26690 ft 439 kts 147°
2026-04-26 14:34 13.11456 121.30454 26409 ft 438 kts 147°
2026-04-26 14:34 13.08942 121.32216 26083 ft 436 kts 147°
2026-04-26 14:34 13.06455 121.33955 25660 ft 433 kts 147°
2026-04-26 14:35 13.03931 121.35722 25182 ft 430 kts 146°
2026-04-26 14:35 13.01486 121.37434 24696 ft 426 kts 146°
2026-04-26 14:35 12.99033 121.39150 24190 ft 422 kts 146°
2026-04-26 14:35 12.96597 121.40855 23685 ft 419 kts 146°
2026-04-26 14:36 12.94170 121.42552 23176 ft 416 kts 146°
2026-04-26 14:36 12.91805 121.44205 22674 ft 414 kts 146°
2026-04-26 14:36 12.89418 121.45873 22166 ft 412 kts 146°
2026-04-26 14:36 12.87042 121.47527 21679 ft 409 kts 146°
2026-04-26 14:37 12.84655 121.49187 21181 ft 407 kts 146°
2026-04-26 14:37 12.82316 121.50816 20691 ft 405 kts 146°
2026-04-26 14:37 12.80006 121.52428 20212 ft 402 kts 145°
2026-04-26 14:37 12.77660 121.54064 19720 ft 399 kts 145°
2026-04-26 14:38 12.75393 121.55647 19245 ft 396 kts 145°
2026-04-26 14:38 12.73093 121.57251 18754 ft 394 kts 145°
2026-04-26 14:38 12.70840 121.58823 18276 ft 391 kts 145°
2026-04-26 14:38 12.68587 121.60396 17797 ft 388 kts 145°
2026-04-26 14:39 12.66353 121.61955 17316 ft 385 kts 145°
2026-04-26 14:39 12.64170 121.63477 16845 ft 382 kts 145°
2026-04-26 14:39 12.61939 121.65034 16361 ft 379 kts 145°
2026-04-26 14:39 12.59770 121.66554 15883 ft 376 kts 144°
2026-04-26 14:40 12.57624 121.68064 15405 ft 374 kts 144°
2026-04-26 14:40 12.55462 121.69580 14924 ft 371 kts 144°
2026-04-26 14:40 12.53346 121.71061 14452 ft 367 kts 144°
2026-04-26 14:40 12.51224 121.72541 13979 ft 364 kts 144°
2026-04-26 14:41 12.49111 121.74015 13504 ft 361 kts 144°
2026-04-26 14:41 12.47039 121.75459 13040 ft 358 kts 144°
2026-04-26 14:41 12.44983 121.76891 12573 ft 355 kts 144°
2026-04-26 14:41 12.42943 121.78311 12108 ft 352 kts 144°
2026-04-26 14:42 12.40923 121.79717 11641 ft 349 kts 144°
2026-04-26 14:42 12.38910 121.81116 11173 ft 347 kts 144°
2026-04-26 14:42 12.36733 121.82193 10668 ft 349 kts 164°
2026-04-26 14:42 12.34332 121.82336 10242 ft 348 kts 186°
2026-04-26 14:43 12.31983 121.81837 10125 ft 333 kts 191°
2026-04-26 14:43 12.29769 121.81328 10040 ft 318 kts 191°
2026-04-26 14:43 12.27645 121.80846 9957 ft 304 kts 190°
2026-04-26 14:43 12.25573 121.80385 9626 ft 301 kts 190°
2026-04-26 14:44 12.23522 121.79935 9275 ft 299 kts 190°
2026-04-26 14:44 12.21480 121.79490 8931 ft 296 kts 190°
2026-04-26 14:44 12.19462 121.79050 8587 ft 294 kts 190°
2026-04-26 14:44 12.17479 121.78620 8252 ft 292 kts 190°
2026-04-26 14:45 12.15470 121.78185 7913 ft 290 kts 189°
2026-04-26 14:45 12.14142 121.77896 7690 ft 289 kts 189°
2026-04-26 14:45 12.11538 121.77332 7258 ft 287 kts 189°
2026-04-26 14:45 12.09555 121.76903 6927 ft 285 kts 189°
2026-04-26 14:46 12.07606 121.76481 6606 ft 284 kts 189°
2026-04-26 14:46 12.05670 121.76062 6287 ft 282 kts 189°
2026-04-26 14:46 12.03756 121.75648 5976 ft 281 kts 189°
2026-04-26 14:46 12.01834 121.75233 5667 ft 279 kts 189°
2026-04-26 14:47 11.99921 121.74818 5359 ft 277 kts 188°
2026-04-26 14:47 11.98026 121.74409 5058 ft 276 kts 188°
2026-04-26 14:47 11.96166 121.74007 4763 ft 274 kts 188°
2026-04-26 14:47 11.94298 121.73603 4467 ft 273 kts 188°
2026-04-26 14:48 11.92424 121.73206 4147 ft 271 kts 185°
2026-04-26 14:48 11.90570 121.73245 3906 ft 258 kts 161°
2026-04-26 14:48 11.88965 121.73921 3873 ft 239 kts 148°
2026-04-26 14:48 11.87532 121.74682 3837 ft 225 kts 147°
2026-04-26 14:49 11.86170 121.75414 3799 ft 212 kts 147°
2026-04-26 14:49 11.84899 121.76104 3737 ft 201 kts 141°
2026-04-26 14:49 11.84024 121.77079 3569 ft 188 kts 105°
2026-04-26 14:49 11.83906 121.78297 3399 ft 165 kts 78°
2026-04-26 14:50 11.84318 121.79348 3178 ft 150 kts 63°
2026-04-26 14:50 11.84763 121.80210 3032 ft 140 kts 62°
2026-04-26 14:50 11.85221 121.81092 2863 ft 137 kts 63°
2026-04-26 14:50 11.85661 121.81950 2705 ft 136 kts 63°
2026-04-26 14:51 11.86101 121.82814 2550 ft 136 kts 63°
2026-04-26 14:51 11.86532 121.83665 2393 ft 135 kts 64°
2026-04-26 14:51 11.86971 121.84535 2235 ft 135 kts 64°
2026-04-26 14:51 11.87397 121.85381 2040 ft 135 kts 64°
2026-04-26 14:52 11.87827 121.86239 1854 ft 134 kts 64°
2026-04-26 14:52 11.88255 121.87091 1672 ft 134 kts 64°
2026-04-26 14:52 11.88681 121.87940 1494 ft 133 kts 64°
2026-04-26 14:52 11.89105 121.88784 1309 ft 133 kts 64°
2026-04-26 14:53 11.89524 121.89618 1149 ft 133 kts 64°
2026-04-26 14:53 11.89947 121.90459 972 ft 132 kts 65°
2026-04-26 14:53 11.90371 121.91289 811 ft 132 kts 64°
2026-04-26 14:53 11.90806 121.92111 634 ft 131 kts 64°
2026-04-26 14:54 11.91233 121.92934 485 ft 130 kts 65°
2026-04-26 14:54 11.91649 121.93774 337 ft 131 kts 65°
2026-04-26 14:54 11.92052 121.94589 153 ft 126 kts 65°
2026-04-26 14:54 11.92442 121.95369 13 ft 116 kts 65°
2026-04-26 14:55 11.92680 121.95850 13 ft 52 kts 63°
2026-04-26 14:55 11.92798 121.96086 13 ft 10 kts 66°
2026-04-26 14:55 11.92766 121.96138 12 ft 10 kts 154°
2026-04-26 14:55 11.92702 121.96173 12 ft 10 kts 150°
2026-04-26 14:56 11.92635 121.96210 13 ft 10 kts 152°
2026-04-26 14:56 11.92565 121.96220 12 ft 9 kts 175°
2026-04-26 14:56 11.92531 121.96249 13 ft 5 kts 72°
2026-04-26 14:56 11.92548 121.96281 13 ft 4 kts 62°
2026-04-26 14:57 11.92552 121.96291 12 ft 0 kts 66°